Time,TemperatureF,DewpointF,PressureIn,WindDirection,WindDirectionDegrees,WindSpeedMPH,WindSpeedGustMPH,Humidity,HourlyPrecipIn,Conditions,Clouds,dailyrainin,SoftwareType,DateUTC
2013-02-09 00:03:00,29.1,27.0,30.39,North,360,0.0,-999.0,90,-99.99,,,0.00,weatherlink.com 1.10,2013-02-09 06:03:00,
2013-02-09 00:18:00,29.0,27.0,30.39,North,355,0.0,-999.0,90,-99.99,,,0.00,weatherlink.com 1.10,2013-02-09 06:18:00,
2013-02-09 00:33:00,28.9,26.0,30.38,North,360,0.0,-999.0,90,-99.99,,,0.00,weatherlink.com 1.10,2013-02-09 06:33:00,
2013-02-09 00:48:00,28.9,26.0,30.38,North,360,0.0,-999.0,90,-99.99,,,0.00,weatherlink.com 1.10,2013-02-09 06:48:00,
2013-02-09 01:03:00,28.8,26.0,30.38,North,360,0.0,-999.0,90,-99.99,,,0.00,weatherlink.com 1.10,2013-02-09 07:03:00,
2013-02-09 01:18:00,28.8,26.0,30.38,North,360,0.0,-999.0,90,-99.99,,,0.00,weatherlink.com 1.10,2013-02-09 07:18:00,
2013-02-09 01:33:00,28.8,26.0,30.38,North,360,0.0,-999.0,90,-99.99,,,0.00,weatherlink.com 1.10,2013-02-09 07:33:00,
2013-02-09 01:48:00,28.8,26.0,30.37,North,360,0.0,-999.0,90,-99.99,,,0.00,weatherlink.com 1.10,2013-02-09 07:48:00,
2013-02-09 02:03:00,28.6,26.0,30.37,North,360,0.0,-999.0,90,-99.99,,,0.00,weatherlink.com 1.10,2013-02-09 08:03:00,
2013-02-09 02:18:00,28.5,26.0,30.37,North,360,0.0,-999.0,89,-99.99,,,0.00,weatherlink.com 1.10,2013-02-09 08:18:00,
2013-02-09 02:33:00,28.5,26.0,30.39,North,360,0.0,-999.0,89,-99.99,,,0.00,weatherlink.com 1.10,2013-02-09 08:33:00,
2013-02-09 02:48:00,28.8,26.0,30.39,North,360,0.0,-999.0,88,-99.99,,,0.00,weatherlink.com 1.10,2013-02-09 08:48:00,
2013-02-09 03:03:00,28.9,26.0,30.38,North,360,0.0,-999.0,87,-99.99,,,0.00,weatherlink.com 1.10,2013-02-09 09:03:00,
2013-02-09 03:18:00,29.1,25.0,30.38,North,360,0.0,-999.0,85,-99.99,,,0.00,weatherlink.com 1.10,2013-02-09 09:18:00,
2013-02-09 03:33:00,29.2,25.0,30.38,North,360,1.0,-999.0,83,-99.99,,,0.00,weatherlink.com 1.10,2013-02-09 09:33:00,
2013-02-09 03:48:00,29.3,24.0,30.38,North,360,0.0,-999.0,81,-99.99,,,0.00,weatherlink.com 1.10,2013-02-09 09:48:00,
2013-02-09 04:03:00,29.4,24.0,30.38,ENE,58,0.0,-999.0,79,-99.99,,,0.00,weatherlink.com 1.10,2013-02-09 10:03:00,
2013-02-09 04:18:00,29.4,24.0,30.38,ESE,117,2.0,-999.0,79,-99.99,,,0.00,weatherlink.com 1.10,2013-02-09 10:18:00,
2013-02-09 04:33:00,29.4,24.0,30.39,SE,126,0.0,-999.0,79,-99.99,,,0.00,weatherlink.com 1.10,2013-02-09 10:33:00,
2013-02-09 04:48:00,29.4,24.0,30.39,SE,128,3.0,-999.0,79,-99.99,,,0.00,weatherlink.com 1.10,2013-02-09 10:48:00,
2013-02-09 05:04:00,29.3,24.0,30.40,SE,130,0.0,-999.0,79,-99.99,,,0.00,weatherlink.com 1.10,2013-02-09 11:04:00,
2013-02-09 05:19:00,29.3,24.0,30.40,SE,134,0.0,-999.0,79,-99.99,,,0.00,weatherlink.com 1.10,2013-02-09 11:19:00,
2013-02-09 05:34:00,29.3,24.0,30.39,SE,134,0.0,-999.0,80,-99.99,,,0.00,weatherlink.com 1.10,2013-02-09 11:34:00,
2013-02-09 05:49:00,29.2,24.0,30.39,SE,144,1.0,-999.0,80,-99.99,,,0.00,weatherlink.com 1.10,2013-02-09 11:49:00,
2013-02-09 06:04:00,29.2,24.0,30.39,SE,144,7.0,-999.0,80,-99.99,,,0.00,weatherlink.com 1.10,2013-02-09 12:04:00,
2013-02-09 06:19:00,29.1,24.0,30.40,SSE,155,3.0,-999.0,80,-99.99,,,0.00,weatherlink.com 1.10,2013-02-09 12:19:00,
2013-02-09 06:34:00,29.1,24.0,30.39,SE,127,0.0,-999.0,80,-99.99,,,0.00,weatherlink.com 1.10,2013-02-09 12:34:00,
2013-02-09 06:49:00,29.0,23.0,30.39,SE,136,2.0,-999.0,79,-99.99,,,0.00,weatherlink.com 1.10,2013-02-09 12:49:00,
2013-02-09 07:04:00,28.9,23.0,30.40,SE,136,7.0,-999.0,79,-99.99,,,0.00,weatherlink.com 1.10,2013-02-09 13:04:00,
2013-02-09 07:19:00,29.0,24.0,30.40,SE,140,3.0,-999.0,81,-99.99,,,0.00,weatherlink.com 1.10,2013-02-09 13:19:00,
2013-02-09 07:34:00,29.0,24.0,30.39,SE,142,3.0,-999.0,81,-99.99,,,0.00,weatherlink.com 1.10,2013-02-09 13:34:00,
2013-02-09 07:49:00,29.0,24.0,30.38,SE,132,6.0,-999.0,82,-99.99,,,0.00,weatherlink.com 1.10,2013-02-09 13:49:00,
2013-02-09 08:04:00,29.1,24.0,30.38,SSE,159,6.0,-999.0,82,-99.99,,,0.00,weatherlink.com 1.10,2013-02-09 14:04:00,
2013-02-09 08:19:00,29.3,24.0,30.38,SSE,154,4.0,-999.0,82,-99.99,,,0.00,weatherlink.com 1.10,2013-02-09 14:19:00,
2013-02-09 08:34:00,29.2,24.0,30.38,SE,144,6.0,-999.0,81,-99.99,,,0.00,weatherlink.com 1.10,2013-02-09 14:34:00,
2013-02-09 08:49:00,29.6,25.0,30.38,SE,144,6.0,-999.0,82,-99.99,,,0.00,weatherlink.com 1.10,2013-02-09 14:49:00,
2013-02-09 09:04:00,29.7,25.0,30.38,SSE,155,6.0,-999.0,82,-99.99,,,0.00,weatherlink.com 1.10,2013-02-09 15:04:00,
2013-02-09 09:19:00,29.8,25.0,30.39,SE,138,8.0,-999.0,81,-99.99,,,0.00,weatherlink.com 1.10,2013-02-09 15:19:00,
2013-02-09 09:34:00,30.0,25.0,30.39,SE,146,4.0,-999.0,81,-99.99,,,0.00,weatherlink.com 1.10,2013-02-09 15:34:00,
2013-02-09 09:49:00,30.2,25.0,30.38,SSE,153,6.0,-999.0,81,-99.99,,,0.00,weatherlink.com 1.10,2013-02-09 15:49:00,
2013-02-09 10:04:00,30.3,25.0,30.38,SE,138,9.0,-999.0,81,-99.99,,,0.00,weatherlink.com 1.10,2013-02-09 16:04:00,
2013-02-09 10:19:00,30.9,26.0,30.38,SSE,156,7.0,-999.0,81,-99.99,,,0.00,weatherlink.com 1.10,2013-02-09 16:19:00,
2013-02-09 10:34:00,30.9,25.0,30.39,South,171,5.0,-999.0,79,-99.99,,,0.00,weatherlink.com 1.10,2013-02-09 16:34:00,
2013-02-09 10:49:00,31.1,25.0,30.38,SE,136,6.0,-999.0,79,-99.99,,,0.00,weatherlink.com 1.10,2013-02-09 16:49:00,
2013-02-09 11:04:00,31.4,26.0,30.38,SSE,154,5.0,-999.0,79,-99.99,,,0.00,weatherlink.com 1.10,2013-02-09 17:04:00,
2013-02-09 11:19:00,31.5,25.0,30.37,South,171,3.0,-999.0,78,-99.99,,,0.00,weatherlink.com 1.10,2013-02-09 17:19:00,
2013-02-09 11:34:00,31.8,26.0,30.36,SSW,197,2.0,-999.0,78,-99.99,,,0.00,weatherlink.com 1.10,2013-02-09 17:34:00,
2013-02-09 11:49:00,33.3,27.0,30.35,SSE,153,9.0,-999.0,76,-99.99,,,0.00,weatherlink.com 1.10,2013-02-09 17:49:00,
2013-02-09 12:04:00,33.0,27.0,30.33,SSE,168,6.0,-999.0,77,-99.99,,,0.00,weatherlink.com 1.10,2013-02-09 18:04:00,
2013-02-09 12:35:00,34.7,28.0,30.32,SSE,151,5.0,-999.0,75,-99.99,,,0.00,weatherlink.com 1.10,2013-02-09 18:35:00,
2013-02-09 12:50:00,35.5,28.0,30.31,SE,140,5.0,-999.0,74,-99.99,,,0.00,weatherlink.com 1.10,2013-02-09 18:50:00,
2013-02-09 13:05:00,35.9,28.0,30.30,SSE,161,3.0,-999.0,72,-99.99,,,0.00,weatherlink.com 1.10,2013-02-09 19:05:00,
2013-02-09 13:20:00,36.0,27.0,30.29,SSE,158,7.0,-999.0,71,-99.99,,,0.00,weatherlink.com 1.10,2013-02-09 19:20:00,
2013-02-09 13:35:00,36.6,28.0,30.29,SSE,154,0.0,-999.0,72,-99.99,,,0.00,weatherlink.com 1.10,2013-02-09 19:35:00,
2013-02-09 13:51:00,37.0,29.0,30.29,South,171,5.0,-999.0,72,-99.99,,,0.00,weatherlink.com 1.10,2013-02-09 19:51:00,
2013-02-09 14:05:00,37.6,30.0,30.28,SSW,209,6.0,-999.0,73,-99.99,,,0.00,weatherlink.com 1.10,2013-02-09 20:05:00,
2013-02-09 14:20:00,38.1,30.0,30.27,South,186,3.0,-999.0,72,-99.99,,,0.00,weatherlink.com 1.10,2013-02-09 20:20:00,
2013-02-09 14:35:00,38.2,30.0,30.27,SSW,192,2.0,-999.0,72,-99.99,,,0.00,weatherlink.com 1.10,2013-02-09 20:35:00,
2013-02-09 14:50:00,38.5,30.0,30.26,SE,143,1.0,-999.0,71,-99.99,,,0.00,weatherlink.com 1.10,2013-02-09 20:50:00,
2013-02-09 15:05:00,38.6,30.0,30.26,South,171,0.0,-999.0,71,-99.99,,,0.00,weatherlink.com 1.10,2013-02-09 21:05:00,
2013-02-09 15:20:00,39.1,30.0,30.25,SSE,161,0.0,-999.0,70,-99.99,,,0.00,weatherlink.com 1.10,2013-02-09 21:20:00,
2013-02-09 15:35:00,39.1,30.0,30.24,SSE,155,2.0,-999.0,70,-99.99,,,0.00,weatherlink.com 1.10,2013-02-09 21:35:00,
2013-02-09 15:50:00,39.3,31.0,30.24,SE,144,9.0,-999.0,71,-99.99,,,0.00,weatherlink.com 1.10,2013-02-09 21:50:00,
2013-02-09 16:05:00,39.6,31.0,30.23,SSE,150,2.0,-999.0,70,-99.99,,,0.00,weatherlink.com 1.10,2013-02-09 22:05:00,
2013-02-09 16:20:00,39.8,30.0,30.22,SE,143,6.0,-999.0,69,-99.99,,,0.00,weatherlink.com 1.10,2013-02-09 22:20:00,
2013-02-09 16:35:00,39.7,31.0,30.21,SE,126,3.0,-999.0,72,-99.99,,,0.00,weatherlink.com 1.10,2013-02-09 22:35:00,
2013-02-09 16:50:00,38.9,31.0,30.21,SE,128,4.0,-999.0,74,-99.99,,,0.00,weatherlink.com 1.10,2013-02-09 22:50:00,
2013-02-09 17:06:00,38.0,31.0,30.21,SE,132,4.0,-999.0,76,-99.99,,,0.00,weatherlink.com 1.10,2013-02-09 23:06:00,
2013-02-09 17:21:00,37.1,31.0,30.21,SE,129,4.0,-999.0,77,-99.99,,,0.00,weatherlink.com 1.10,2013-02-09 23:21:00,
2013-02-09 17:36:00,36.4,30.0,30.21,SE,135,2.0,-999.0,78,-99.99,,,0.00,weatherlink.com 1.10,2013-02-09 23:36:00,
2013-02-09 17:51:00,35.7,30.0,30.20,SE,130,3.0,-999.0,79,-99.99,,,0.00,weatherlink.com 1.10,2013-02-09 23:51:00,
2013-02-09 18:06:00,35.0,29.0,30.20,SE,131,3.0,-999.0,80,-99.99,,,0.00,weatherlink.com 1.10,2013-02-10 00:06:00,
2013-02-09 18:21:00,34.4,29.0,30.19,SE,130,3.0,-999.0,81,-99.99,,,0.00,weatherlink.com 1.10,2013-02-10 00:21:00,
2013-02-09 18:36:00,34.4,29.0,30.19,SE,136,3.0,-999.0,82,-99.99,,,0.00,weatherlink.com 1.10,2013-02-10 00:36:00,
2013-02-09 18:51:00,34.1,29.0,30.18,SE,133,3.0,-999.0,82,-99.99,,,0.00,weatherlink.com 1.10,2013-02-10 00:51:00,
2013-02-09 19:06:00,33.8,29.0,30.19,SE,134,5.0,-999.0,83,-99.99,,,0.00,weatherlink.com 1.10,2013-02-10 01:06:00,
2013-02-09 19:21:00,33.8,30.0,30.19,SE,138,5.0,-999.0,84,-99.99,,,0.00,weatherlink.com 1.10,2013-02-10 01:21:00,
2013-02-09 19:37:00,34.1,30.0,30.18,SE,125,8.0,-999.0,83,-99.99,,,0.00,weatherlink.com 1.10,2013-02-10 01:37:00,
2013-02-09 19:52:00,34.3,29.0,30.17,SE,141,9.0,-999.0,82,-99.99,,,0.00,weatherlink.com 1.10,2013-02-10 01:52:00,
2013-02-09 20:06:00,34.0,29.0,30.17,SE,129,11.0,-999.0,83,-99.99,,,0.00,weatherlink.com 1.10,2013-02-10 02:06:00,
2013-02-09 20:21:00,34.4,29.0,30.16,SE,136,11.0,-999.0,82,-99.99,,,0.00,weatherlink.com 1.10,2013-02-10 02:21:00,
2013-02-09 20:36:00,34.4,29.0,30.16,SE,137,12.0,-999.0,81,-99.99,,,0.00,weatherlink.com 1.10,2013-02-10 02:36:00,
2013-02-09 20:51:00,34.4,29.0,30.16,SSE,148,8.0,-999.0,81,-99.99,,,0.00,weatherlink.com 1.10,2013-02-10 02:51:00,
2013-02-09 21:06:00,34.4,29.0,30.16,SE,126,5.0,-999.0,81,-99.99,,,0.00,weatherlink.com 1.10,2013-02-10 03:06:00,
2013-02-09 21:21:00,34.4,29.0,30.15,SE,143,7.0,-999.0,80,-99.99,,,0.00,weatherlink.com 1.10,2013-02-10 03:21:00,
2013-02-09 21:36:00,34.9,29.0,30.14,SE,138,10.0,-999.0,78,-99.99,,,0.00,weatherlink.com 1.10,2013-02-10 03:36:00,
2013-02-09 21:51:00,35.1,29.0,30.13,SE,145,13.0,-999.0,78,-99.99,,,0.00,weatherlink.com 1.10,2013-02-10 03:51:00,
2013-02-09 22:06:00,35.3,29.0,30.12,SE,138,11.0,-999.0,77,-99.99,,,0.00,weatherlink.com 1.10,2013-02-10 04:06:00,
2013-02-09 22:21:00,35.5,29.0,30.12,SE,144,6.0,-999.0,76,-99.99,,,0.00,weatherlink.com 1.10,2013-02-10 04:21:00,
2013-02-09 22:36:00,35.4,29.0,30.13,SSE,154,5.0,-999.0,76,-99.99,,,0.00,weatherlink.com 1.10,2013-02-10 04:36:00,
2013-02-09 22:51:00,35.2,28.0,30.13,SSE,155,3.0,-999.0,76,-99.99,,,0.00,weatherlink.com 1.10,2013-02-10 04:51:00,
2013-02-09 23:06:00,34.9,28.0,30.12,SE,142,9.0,-999.0,77,-99.99,,,0.00,weatherlink.com 1.10,2013-02-10 05:06:00,
2013-02-09 23:21:00,34.8,28.0,30.11,SE,141,7.0,-999.0,77,-99.99,,,0.00,weatherlink.com 1.10,2013-02-10 05:21:00,
2013-02-09 23:37:00,34.4,28.0,30.10,SE,132,4.0,-999.0,78,-99.99,,,0.00,weatherlink.com 1.10,2013-02-10 05:37:00,
2013-02-09 23:52:00,34.4,28.0,30.09,SSE,148,5.0,-999.0,78,-99.99,,,0.00,weatherlink.com 1.10,2013-02-10 05:52:00,